| time (UTC) | temp F | wind direction | speed MPH | gust MPH | rain 1hr in | rain 24hr in | rain mn in | humidity % | barometer mb |
| 20260507090345 | 51 | 316 | 1.0 | 5.0 | 0.00 | 0.00 | 0.00 | 90 | 1006.4 |
| 20260507085858 | 51 | 319 | 1.0 | 5.0 | 0.00 | 0.00 | 0.00 | 90 | 1006.4 |
| 20260507085402 | 51 | 317 | 2.0 | 6.0 | 0.00 | 0.00 | 0.00 | 90 | 1006.4 |
| 20260507084905 | 51 | 315 | 3.0 | 6.0 | 0.00 | 0.00 | 0.00 | 89 | 1006.3 |
| 20260507084349 | 51 | 316 | 2.0 | 6.0 | 0.00 | 0.00 | 0.00 | 89 | 1006.4 |
| 20260507083855 | 51 | 316 | 3.0 | 7.0 | 0.00 | 0.00 | 0.00 | 89 | 1006.4 |
| 20260507083355 | 52 | 318 | 2.0 | 7.0 | 0.00 | 0.00 | 0.00 | 89 | 1006.1 |
| 20260507082857 | 52 | 294 | 2.0 | 6.0 | 0.00 | 0.00 | 0.00 | 89 | 1006.0 |
| 20260507082401 | 52 | 291 | 2.0 | 6.0 | 0.00 | 0.00 | 0.00 | 88 | 1006.1 |
| 20260507081843 | 52 | 287 | 0.0 | 6.0 | 0.00 | 0.00 | 0.00 | 88 | 1006.0 |
| 20260507081350 | 52 | 276 | 0.0 | 7.0 | 0.00 | 0.00 | 0.00 | 87 | 1005.8 |
| 20260507080855 | 53 | 299 | 2.0 | 7.0 | 0.00 | 0.00 | 0.00 | 87 | 1005.9 |
| 20260507080353 | 53 | 325 | 2.0 | 8.0 | 0.00 | 0.00 | 0.00 | 86 | 1006.0 |
| 20260507075846 | 53 | 331 | 3.0 | 8.0 | 0.00 | 0.00 | 0.00 | 86 | 1006.2 |
| 20260507075352 | 53 | 315 | 3.0 | 9.0 | 0.00 | 0.00 | 0.00 | 86 | 1005.9 |
| 20260507074856 | 54 | 317 | 3.0 | 9.0 | 0.00 | 0.00 | 0.00 | 85 | 1006.0 |
| 20260507074402 | 54 | 340 | 2.0 | 8.0 | 0.00 | 0.00 | 0.00 | 85 | 1005.7 |
| 20260507073846 | 55 | 346 | 3.0 | 9.0 | 0.00 | 0.00 | 0.00 | 85 | 1005.8 |
| 20260507073349 | 55 | 301 | 4.0 | 9.0 | 0.00 | 0.00 | 0.00 | 84 | 1005.8 |
| 20260507072857 | 55 | 287 | 3.0 | 7.0 | 0.00 | 0.00 | 0.00 | 84 | 1005.7 |
| 20260507072345 | 55 | 298 | 3.0 | 7.0 | 0.00 | 0.00 | 0.00 | 84 | 1005.6 |
| 20260507071850 | 55 | 332 | 2.0 | 9.0 | 0.00 | 0.00 | 0.00 | 84 | 1005.2 |
| 20260507071418 | 55 | 331 | 2.0 | 9.0 | 0.00 | 0.00 | 0.00 | 84 | 1004.9 |
| 20260507070842 | 56 | 328 | 1.0 | 7.0 | 0.00 | 0.00 | 0.00 | 85 | 1004.9 |
| 20260507070356 | 56 | 329 | 2.0 | 7.0 | 0.00 | 0.00 | 0.00 | 85 | 1005.0 |
| 20260507065906 | 56 | 323 | 2.0 | 5.0 | 0.00 | 0.00 | 0.00 | 85 | 1005.2 |
| 20260507065353 | 56 | 321 | 1.0 | 4.0 | 0.00 | 0.00 | 0.00 | 85 | 1005.0 |
| 20260507064900 | 56 | 321 | 1.0 | 5.0 | 0.00 | 0.00 | 0.00 | 85 | 1005.0 |
| 20260507064345 | 56 | 320 | 1.0 | 5.0 | 0.00 | 0.00 | 0.00 | 85 | 1005.2 |
| 20260507063854 | 56 | 320 | 1.0 | 7.0 | 0.00 | 0.00 | 0.00 | 85 | 1005.2 |
| 20260507063359 | 56 | 325 | 3.0 | 8.0 | 0.00 | 0.00 | 0.00 | 85 | 1005.3 |
| 20260507062846 | 56 | 326 | 3.0 | 9.0 | 0.00 | 0.00 | 0.00 | 86 | 1005.3 |
| 20260507062413 | 57 | 331 | 3.0 | 9.0 | 0.00 | 0.00 | 0.00 | 86 | 1005.3 |
| 20260507061856 | 57 | 325 | 3.0 | 9.0 | 0.00 | 0.00 | 0.00 | 86 | 1005.1 |
| 20260507061342 | 57 | 329 | 2.0 | 6.0 | 0.00 | 0.00 | 0.00 | 86 | 1004.9 |
| 20260507060850 | 57 | 333 | 1.0 | 5.0 | 0.00 | 0.00 | 0.00 | 87 | 1004.8 |
| 20260507060351 | 57 | 329 | 1.0 | 5.0 | 0.00 | 0.00 | 0.00 | 87 | 1004.9 |
| 20260507055922 | 57 | 331 | 1.0 | 6.0 | 0.00 | 0.00 | 0.00 | 87 | 1005.2 |
| 20260507055350 | 57 | 332 | 2.0 | 6.0 | 0.00 | 0.00 | 0.00 | 87 | 1005.3 |
| 20260507054855 | 58 | 293 | 1.0 | 7.0 | 0.00 | 0.00 | 0.00 | 87 | 1005.2 |
| 20260507054341 | 58 | 288 | 3.0 | 10.0 | 0.00 | 0.00 | 0.00 | 87 | 1005.2 |
| 20260507053848 | 58 | 311 | 3.0 | 10.0 | 0.00 | 0.00 | 0.00 | 88 | 1005.5 |
| 20260507053349 | 58 | 302 | 0.0 | 5.0 | 0.00 | 0.00 | 0.00 | 89 | 1005.6 |
| 20260507052856 | 58 | 300 | 1.0 | 6.0 | 0.00 | 0.00 | 0.00 | 89 | 1005.4 |
| 20260507052344 | 58 | 300 | 2.0 | 6.0 | 0.00 | 0.00 | 0.00 | 89 | 1005.4 |
| 20260507051847 | 58 | 301 | 1.0 | 6.0 | 0.00 | 0.00 | 0.00 | 89 | 1005.3 |
| 20260507051351 | 58 | 295 | 3.0 | 6.0 | 0.00 | 0.00 | 0.00 | 89 | 1005.1 |
| 20260507050859 | 59 | 290 | 2.0 | 7.0 | 0.00 | 0.00 | 0.00 | 90 | 1004.9 |
| 20260507050342 | 59 | 283 | 1.0 | 9.0 | 0.00 | 0.00 | 0.00 | 90 | 1005.0 |
| 20260507045855 | 59 | 282 | 3.0 | 10.0 | 0.00 | 0.00 | 0.00 | 90 | 1005.1 |
| 20260507045342 | 59 | 312 | 2.0 | 10.0 | 0.00 | 0.00 | 0.00 | 91 | 1005.1 |
| 20260507044847 | 59 | 312 | 2.0 | 6.0 | 0.00 | 0.00 | 0.00 | 91 | 1005.2 |
| 20260507044353 | 59 | 317 | 1.0 | 10.0 | 0.00 | 0.00 | 0.00 | 92 | 1005.2 |
| 20260507043859 | 59 | 338 | 2.0 | 12.0 | 0.00 | 0.00 | 0.00 | 92 | 1005.3 |
| 20260507043404 | 59 | 303 | 5.0 | 12.0 | 0.00 | 0.00 | 0.00 | 92 | 1005.0 |
| 20260507042910 | 60 | 329 | 2.0 | 11.0 | 0.00 | 0.00 | 0.00 | 93 | 1004.9 |
| 20260507042414 | 60 | 305 | 3.0 | 6.0 | 0.00 | 0.00 | 0.00 | 93 | 1005.0 |
| 20260507041856 | 60 | 307 | 1.0 | 5.0 | 0.00 | 0.00 | 0.00 | 93 | 1005.0 |
| 20260507041421 | 60 | 312 | 0.0 | 5.0 | 0.00 | 0.00 | 0.00 | 93 | 1005.0 |
| 20260507040847 | 60 | 313 | 3.0 | 7.0 | 0.00 | 0.00 | 0.00 | 93 | 1005.0 |
| 20260507040422 | 60 | 305 | 1.0 | 5.0 | 0.00 | 0.00 | 0.00 | 94 | 1005.2 |
| 20260507035846 | 60 | 305 | 0.0 | 5.0 | 0.00 | 0.00 | 0.00 | 94 | 1005.3 |
| 20260507035354 | 60 | 304 | 1.0 | 5.0 | 0.00 | 0.00 | 0.00 | 94 | 1005.4 |
| 20260507034858 | 60 | 311 | 2.0 | 6.0 | 0.00 | 0.00 | 0.00 | 93 | 1005.4 |
| 20260507034401 | 60 | 310 | 2.0 | 6.0 | 0.00 | 0.00 | 0.00 | 93 | 1005.2 |
| 20260507033849 | 60 | 321 | 3.0 | 6.0 | 0.00 | 0.00 | 0.00 | 93 | 1005.1 |
| 20260507033353 | 60 | 285 | 1.0 | 6.0 | 0.00 | 0.00 | 0.00 | 93 | 1004.9 |
| 20260507032920 | 60 | 277 | 1.0 | 8.0 | 0.00 | 0.00 | 0.00 | 93 | 1004.8 |
| 20260507032347 | 60 | 272 | 2.0 | 9.0 | 0.00 | 0.00 | 0.00 | 93 | 1005.0 |
| 20260507031912 | 60 | 277 | 3.0 | 9.0 | 0.00 | 0.00 | 0.00 | 93 | 1004.8 |
| 20260507031358 | 60 | 279 | 3.0 | 8.0 | 0.00 | 0.00 | 0.00 | 94 | 1004.7 |
| 20260507030904 | 60 | 262 | 3.0 | 8.0 | 0.00 | 0.00 | 0.00 | 93 | 1004.6 |
| 20260507030345 | 60 | 238 | 1.0 | 7.0 | 0.00 | 0.00 | 0.00 | 93 | 1004.6 |
| 20260507025856 | 60 | 275 | 2.0 | 7.0 | 0.00 | 0.00 | 0.00 | 93 | 1004.6 |
| 20260507025400 | 60 | 228 | 3.0 | 7.0 | 0.00 | 0.00 | 0.00 | 93 | 1004.6 |
| 20260507024901 | 60 | 305 | 2.0 | 7.0 | 0.00 | 0.00 | 0.00 | 93 | 1004.5 |
| 20260507024348 | 60 | 261 | 2.0 | 7.0 | 0.00 | 0.00 | 0.00 | 93 | 1004.5 |
| 20260507023855 | 60 | 245 | 3.0 | 7.0 | 0.00 | 0.00 | 0.00 | 93 | 1004.6 |
| 20260507023400 | 60 | 309 | 2.0 | 6.0 | 0.00 | 0.00 | 0.00 | 94 | 1004.8 |
| 20260507022848 | 60 | 331 | 1.0 | 6.0 | 0.00 | 0.00 | 0.00 | 94 | 1004.8 |
| 20260507022349 | 60 | 244 | 2.0 | 7.0 | 0.00 | 0.00 | 0.00 | 94 | 1004.6 |
| 20260507021849 | 59 | 250 | 3.0 | 7.0 | 0.00 | 0.00 | 0.00 | 94 | 1004.5 |
| 20260507021354 | 59 | 257 | 2.0 | 6.0 | 0.00 | 0.00 | 0.00 | 94 | 1004.6 |
| 20260507020921 | 59 | 272 | 1.0 | 7.0 | 0.00 | 0.00 | 0.00 | 94 | 1004.7 |
| 20260507020355 | 59 | 236 | 3.0 | 7.0 | 0.00 | 0.00 | 0.00 | 94 | 1004.6 |
| 20260507015844 | 59 | 285 | 1.0 | 7.0 | 0.00 | 0.00 | 0.00 | 94 | 1004.7 |
| 20260507015410 | 59 | 254 | 2.0 | 4.0 | 0.00 | 0.00 | 0.00 | 94 | 1004.5 |
| 20260507014853 | 59 | 259 | 2.0 | 5.0 | 0.00 | 0.00 | 0.00 | 94 | 1004.6 |
| 20260507014357 | 59 | 275 | 2.0 | 5.0 | 0.00 | 0.00 | 0.00 | 94 | 1004.6 |
| 20260507013901 | 59 | 286 | 1.0 | 7.0 | 0.00 | 0.00 | 0.00 | 94 | 1004.6 |
| 20260507013403 | 59 | 214 | 3.0 | 7.0 | 0.00 | 0.00 | 0.00 | 93 | 1004.7 |
| 20260507012849 | 59 | 247 | 1.0 | 6.0 | 0.00 | 0.00 | 0.00 | 93 | 1004.7 |
| 20260507012354 | 59 | 202 | 4.0 | 7.0 | 0.00 | 0.00 | 0.00 | 93 | 1004.7 |
| 20260507011921 | 59 | 233 | 2.0 | 8.0 | 0.00 | 0.00 | 0.00 | 93 | 1004.9 |
| 20260507011345 | 59 | 227 | 1.0 | 8.0 | 0.00 | 0.00 | 0.00 | 93 | 1005.1 |
| 20260507010852 | 59 | 248 | 1.0 | 6.0 | 0.00 | 0.00 | 0.00 | 93 | 1005.0 |
| 20260507010351 | 59 | 297 | 2.0 | 7.0 | 0.00 | 0.00 | 0.00 | 93 | 1005.1 |
| 20260507005841 | 59 | 238 | 3.0 | 7.0 | 0.00 | 0.00 | 0.00 | 93 | 1005.1 |
| 20260507005347 | 59 | 224 | 2.0 | 7.0 | 0.00 | 0.00 | 0.00 | 93 | 1005.2 |
| 20260507004912 | 59 | 221 | 2.0 | 7.0 | 0.00 | 0.00 | 0.00 | 93 | 1005.2 |
| 20260507004354 | 59 | 232 | 3.0 | 7.0 | 0.00 | 0.00 | 0.00 | 93 | 1005.1 |
| 20260507003857 | 59 | 227 | 2.0 | 7.0 | 0.00 | 0.00 | 0.00 | 93 | 1005.1 |
| 20260507003358 | 59 | 227 | 2.0 | 8.0 | 0.00 | 0.00 | 0.00 | 93 | 1005.0 |
| 20260507002902 | 59 | 224 | 1.0 | 8.0 | 0.00 | 0.00 | 0.00 | 93 | 1005.0 |
| 20260507002347 | 59 | 227 | 3.0 | 8.0 | 0.00 | 0.00 | 0.00 | 93 | 1005.1 |
| 20260507001850 | 59 | 229 | 2.0 | 8.0 | 0.00 | 0.00 | 0.00 | 93 | 1005.0 |
| 20260507001355 | 59 | 209 | 1.0 | 7.0 | 0.00 | 0.00 | 0.00 | 93 | 1004.9 |
| 20260507000900 | 59 | 241 | 2.0 | 7.0 | 0.00 | 0.00 | 0.00 | 93 | 1004.8 |
| 20260507000343 | 59 | 231 | 3.0 | 7.0 | 0.00 | 0.00 | 0.00 | 93 | 1004.7 |
| 20260506235855 | 59 | 235 | 3.0 | 7.0 | 0.00 | 0.00 | 0.00 | 93 | 1004.6 |
| 20260506235401 | 59 | 250 | 3.0 | 7.0 | 0.00 | 0.00 | 0.00 | 92 | 1004.7 |
| 20260506234842 | 59 | 229 | 4.0 | 7.0 | 0.00 | 0.00 | 0.00 | 92 | 1004.7 |
| 20260506234410 | 60 | 220 | 4.0 | 7.0 | 0.00 | 0.00 | 0.00 | 92 | 1004.7 |
| 20260506233852 | 60 | 233 | 3.0 | 8.0 | 0.00 | 0.00 | 0.00 | 92 | 1004.8 |
| 20260506233353 | 60 | 304 | 2.0 | 8.0 | 0.00 | 0.00 | 0.00 | 92 | 1004.6 |
| 20260506232856 | 60 | 217 | 2.0 | 8.0 | 0.00 | 0.00 | 0.00 | 92 | 1004.6 |
| 20260506232343 | 60 | 245 | 2.0 | 8.0 | 0.00 | 0.00 | 0.00 | 92 | 1004.5 |
| 20260506231849 | 60 | 264 | 2.0 | 9.0 | 0.00 | 0.00 | 0.00 | 92 | 1004.5 |
| 20260506231356 | 60 | 234 | 4.0 | 9.0 | 0.00 | 0.00 | 0.00 | 92 | 1004.6 |
| 20260506230843 | 60 | 234 | 4.0 | 9.0 | 0.00 | 0.00 | 0.00 | 92 | 1004.6 |
| 20260506230344 | 60 | 237 | 2.0 | 7.0 | 0.00 | 0.00 | 0.00 | 92 | 1004.6 |
| 20260506225854 | 60 | 326 | 2.0 | 7.0 | 0.00 | 0.00 | 0.00 | 92 | 1004.6 |
| 20260506225342 | 60 | 257 | 2.0 | 7.0 | 0.00 | 0.00 | 0.00 | 92 | 1004.7 |
| 20260506224846 | 61 | 235 | 3.0 | 8.0 | 0.00 | 0.00 | 0.00 | 92 | 1004.6 |
| 20260506224351 | 61 | 186 | 2.0 | 8.0 | 0.00 | 0.00 | 0.00 | 92 | 1004.7 |
| 20260506223856 | 61 | 240 | 2.0 | 7.0 | 0.00 | 0.00 | 0.00 | 92 | 1004.6 |
| 20260506223421 | 61 | 246 | 3.0 | 12.0 | 0.00 | 0.00 | 0.00 | 92 | 1004.8 |
| 20260506222905 | 61 | 235 | 3.0 | 12.0 | 0.00 | 0.00 | 0.00 | 91 | 1004.8 |
| 20260506222351 | 61 | 221 | 4.0 | 8.0 | 0.00 | 0.00 | 0.00 | 92 | 1004.9 |
| 20260506221854 | 61 | 232 | 3.0 | 9.0 | 0.00 | 0.00 | 0.00 | 91 | 1005.0 |
| 20260506221400 | 61 | 238 | 4.0 | 11.0 | 0.00 | 0.00 | 0.00 | 91 | 1005.0 |
| 20260506220846 | 61 | 218 | 6.0 | 10.0 | 0.00 | 0.00 | 0.00 | 91 | 1005.1 |
| 20260506220404 | 61 | 236 | 2.0 | 10.0 | 0.00 | 0.00 | 0.00 | 91 | 1005.1 |
| 20260506215853 | 61 | 229 | 6.0 | 10.0 | 0.00 | 0.00 | 0.00 | 90 | 1005.1 |
| 20260506215400 | 61 | 234 | 2.0 | 11.0 | 0.00 | 0.00 | 0.00 | 90 | 1005.1 |
| 20260506214904 | 61 | 214 | 3.0 | 10.0 | 0.00 | 0.00 | 0.00 | 90 | 1005.3 |
| 20260506214349 | 62 | 230 | 5.0 | 10.0 | 0.00 | 0.00 | 0.00 | 89 | 1005.3 |
| 20260506213854 | 62 | 321 | 6.0 | 10.0 | 0.00 | 0.00 | 0.00 | 89 | 1005.4 |
| 20260506213355 | 62 | 223 | 3.0 | 9.0 | 0.00 | 0.00 | 0.00 | 89 | 1005.4 |
| 20260506212858 | 62 | 260 | 4.0 | 10.0 | 0.00 | 0.00 | 0.00 | 89 | 1005.6 |
| 20260506212345 | 62 | 230 | 6.0 | 14.0 | 0.00 | 0.00 | 0.00 | 89 | 1005.4 |
| 20260506211909 | 62 | 229 | 7.0 | 14.0 | 0.00 | 0.00 | 0.00 | 89 | 1005.4 |
| 20260506211352 | 62 | 251 | 5.0 | 10.0 | 0.00 | 0.00 | 0.00 | 89 | 1005.4 |
| 20260506210856 | 62 | 232 | 5.0 | 10.0 | 0.00 | 0.00 | 0.00 | 89 | 1005.4 |
| 20260506210349 | 62 | 273 | 3.0 | 10.0 | 0.00 | 0.00 | 0.00 | 89 | 1005.4 |
| 20260506205841 | 62 | 232 | 5.0 | 12.0 | 0.00 | 0.00 | 0.00 | 88 | 1005.5 |
| 20260506205342 | 62 | 220 | 4.0 | 12.0 | 0.00 | 0.00 | 0.00 | 88 | 1005.5 |
| 20260506204845 | 62 | 240 | 5.0 | 10.0 | 0.00 | 0.00 | 0.00 | 88 | 1005.6 |
| 20260506204352 | 62 | 252 | 2.0 | 12.0 | 0.00 | 0.00 | 0.00 | 88 | 1005.6 |
| 20260506203858 | 62 | 227 | 3.0 | 12.0 | 0.00 | 0.00 | 0.00 | 87 | 1005.7 |
| 20260506203344 | 62 | 309 | 3.0 | 10.0 | 0.00 | 0.00 | 0.00 | 87 | 1005.8 |
| 20260506202851 | 63 | 227 | 4.0 | 9.0 | 0.00 | 0.00 | 0.00 | 86 | 1005.7 |
| 20260506202357 | 63 | 245 | 3.0 | 9.0 | 0.00 | 0.00 | 0.00 | 86 | 1005.7 |
| 20260506201842 | 63 | 220 | 3.0 | 8.0 | 0.00 | 0.00 | 0.00 | 86 | 1005.7 |
| 20260506201348 | 63 | 229 | 3.0 | 7.0 | 0.00 | 0.00 | 0.00 | 85 | 1005.6 |
| 20260506200856 | 63 | 238 | 3.0 | 7.0 | 0.00 | 0.00 | 0.00 | 85 | 1005.6 |
| 20260506200357 | 64 | 248 | 2.0 | 9.0 | 0.00 | 0.00 | 0.00 | 85 | 1005.5 |
| 20260506195846 | 64 | 234 | 4.0 | 10.0 | 0.00 | 0.00 | 0.00 | 84 | 1005.5 |
| 20260506195413 | 64 | 217 | 3.0 | 9.0 | 0.00 | 0.00 | 0.00 | 83 | 1005.5 |
| 20260506194918 | 65 | 231 | 3.0 | 10.0 | 0.00 | 0.00 | 0.00 | 82 | 1005.6 |
| 20260506194342 | 65 | 236 | 3.0 | 10.0 | 0.00 | 0.00 | 0.00 | 81 | 1005.6 |
| 20260506193847 | 65 | 223 | 2.0 | 10.0 | 0.00 | 0.00 | 0.00 | 80 | 1005.8 |
| 20260506193352 | 66 | 240 | 2.0 | 10.0 | 0.00 | 0.00 | 0.00 | 79 | 1005.9 |
| 20260506192840 | 67 | 239 | 4.0 | 10.0 | 0.00 | 0.00 | 0.00 | 77 | 1005.6 |
| 20260506192347 | 67 | 186 | 3.0 | 10.0 | 0.00 | 0.00 | 0.00 | 75 | 1005.8 |
| 20260506191914 | 68 | 222 | 3.0 | 6.0 | 0.00 | 0.00 | 0.00 | 74 | 1005.7 |
| 20260506191417 | 68 | 222 | 2.0 | 7.0 | 0.00 | 0.00 | 0.00 | 72 | 1005.8 |
| 20260506190842 | 69 | 225 | 3.0 | 7.0 | 0.00 | 0.00 | 0.00 | 71 | 1005.7 |
| 20260506190339 | 69 | 225 | 3.0 | 8.0 | 0.00 | 0.00 | 0.00 | 70 | 1005.6 |
| 20260506185847 | 69 | 236 | 4.0 | 8.0 | 0.00 | 0.00 | 0.00 | 68 | 1005.7 |
| 20260506185353 | 69 | 216 | 3.0 | 10.0 | 0.00 | 0.00 | 0.00 | 68 | 1005.6 |
| 20260506184918 | 69 | 230 | 5.0 | 10.0 | 0.00 | 0.00 | 0.00 | 66 | 1005.7 |
| 20260506184401 | 70 | 218 | 6.0 | 12.0 | 0.00 | 0.00 | 0.00 | 66 | 1005.8 |
| 20260506183907 | 70 | 244 | 4.0 | 11.0 | 0.00 | 0.00 | 0.00 | 65 | 1005.8 |
| 20260506183350 | 71 | 220 | 4.0 | 11.0 | 0.00 | 0.00 | 0.00 | 64 | 1005.8 |
| 20260506182855 | 71 | 217 | 5.0 | 12.0 | 0.00 | 0.00 | 0.00 | 62 | 1005.9 |
| 20260506182358 | 71 | 229 | 6.0 | 14.0 | 0.00 | 0.00 | 0.00 | 61 | 1005.9 |
| 20260506181900 | 72 | 248 | 5.0 | 14.0 | 0.00 | 0.00 | 0.00 | 60 | 1005.9 |
| 20260506181344 | 72 | 62 | 4.0 | 14.0 | 0.00 | 0.00 | 0.00 | 59 | 1005.8 |
| 20260506180850 | 72 | 210 | 7.0 | 14.0 | 0.00 | 0.00 | 0.00 | 58 | 1005.9 |
| 20260506180350 | 73 | 235 | 4.0 | 16.0 | 0.00 | 0.00 | 0.00 | 58 | 1005.7 |
| 20260506175920 | 73 | 99 | 8.0 | 16.0 | 0.00 | 0.00 | 0.00 | 57 | 1005.8 |
| 20260506175423 | 73 | 230 | 7.0 | 15.0 | 0.00 | 0.00 | 0.00 | 58 | 1006.0 |
| 20260506174845 | 73 | 236 | 7.0 | 14.0 | 0.00 | 0.00 | 0.00 | 58 | 1006.0 |
| 20260506174349 | 74 | 227 | 5.0 | 13.0 | 0.00 | 0.00 | 0.00 | 58 | 1006.2 |
| 20260506173854 | 74 | 221 | 7.0 | 13.0 | 0.00 | 0.00 | 0.00 | 58 | 1006.1 |
| 20260506173355 | 73 | 217 | 5.0 | 14.0 | 0.00 | 0.00 | 0.00 | 59 | 1006.2 |
| 20260506172859 | 73 | 240 | 6.0 | 14.0 | 0.00 | 0.00 | 0.00 | 60 | 1006.3 |
| 20260506172401 | 73 | 248 | 5.0 | 11.0 | 0.00 | 0.00 | 0.00 | 60 | 1006.3 |
| 20260506171902 | 73 | 221 | 6.0 | 15.0 | 0.00 | 0.00 | 0.00 | 60 | 1006.4 |
| 20260506171347 | 73 | 240 | 7.0 | 15.0 | 0.00 | 0.00 | 0.00 | 60 | 1006.3 |
| 20260506170852 | 72 | 226 | 6.0 | 14.0 | 0.00 | 0.00 | 0.00 | 61 | 1006.2 |
| 20260506170348 | 72 | 243 | 6.0 | 11.0 | 0.00 | 0.00 | 0.00 | 61 | 1006.3 |
| 20260506165916 | 72 | 227 | 5.0 | 11.0 | 0.00 | 0.00 | 0.00 | 61 | 1006.4 |
| 20260506165401 | 72 | 223 | 3.0 | 15.0 | 0.00 | 0.00 | 0.00 | 62 | 1006.4 |
| 20260506164903 | 72 | 237 | 6.0 | 20.0 | 0.00 | 0.00 | 0.00 | 61 | 1006.6 |
| 20260506164346 | 72 | 219 | 6.0 | 20.0 | 0.00 | 0.00 | 0.00 | 61 | 1006.7 |
| 20260506163911 | 73 | 241 | 6.0 | 13.0 | 0.00 | 0.00 | 0.00 | 61 | 1006.6 |
| 20260506163352 | 73 | 231 | 6.0 | 13.0 | 0.00 | 0.00 | 0.00 | 61 | 1006.7 |
| 20260506162855 | 72 | 219 | 4.0 | 10.0 | 0.00 | 0.00 | 0.00 | 61 | 1006.7 |
| 20260506162419 | 72 | 229 | 3.0 | 17.0 | 0.00 | 0.00 | 0.00 | 61 | 1006.7 |
| 20260506161856 | 72 | 163 | 6.0 | 11.0 | 0.00 | 0.00 | 0.00 | 61 | 1006.9 |
| 20260506161401 | 72 | 231 | 6.0 | 11.0 | 0.00 | 0.00 | 0.00 | 62 | 1007.0 |
| 20260506160905 | 72 | 239 | 6.0 | 13.0 | 0.00 | 0.00 | 0.00 | 62 | 1007.2 |
| 20260506160358 | 72 | 234 | 7.0 | 14.0 | 0.00 | 0.00 | 0.00 | 61 | 1007.2 |
| 20260506155858 | 72 | 234 | 7.0 | 16.0 | 0.00 | 0.00 | 0.00 | 61 | 1007.3 |
| 20260506155423 | 72 | 234 | 6.0 | 14.0 | 0.00 | 0.00 | 0.00 | 61 | 1007.4 |
| 20260506154907 | 72 | 229 | 6.0 | 16.0 | 0.00 | 0.00 | 0.00 | 60 | 1007.4 |
| 20260506154350 | 72 | 234 | 7.0 | 16.0 | 0.00 | 0.00 | 0.00 | 60 | 1007.6 |
| 20260506153916 | 73 | 228 | 6.0 | 15.0 | 0.00 | 0.00 | 0.00 | 60 | 1007.7 |
| 20260506153359 | 73 | 228 | 4.0 | 13.0 | 0.00 | 0.00 | 0.00 | 60 | 1007.7 |
| 20260506152846 | 73 | 252 | 3.0 | 14.0 | 0.00 | 0.00 | 0.00 | 60 | 1007.8 |
| 20260506152351 | 73 | 240 | 6.0 | 14.0 | 0.00 | 0.00 | 0.00 | 60 | 1007.8 |
| 20260506151854 | 73 | 240 | 4.0 | 14.0 | 0.00 | 0.00 | 0.00 | 60 | 1007.8 |
| 20260506151401 | 73 | 298 | 4.0 | 18.0 | 0.00 | 0.00 | 0.00 | 61 | 1007.8 |
| 20260506150848 | 72 | 325 | 7.0 | 18.0 | 0.00 | 0.00 | 0.00 | 61 | 1007.9 |
| 20260506150348 | 72 | 240 | 8.0 | 17.0 | 0.00 | 0.00 | 0.00 | 61 | 1008.0 |
| 20260506145859 | 72 | 277 | 5.0 | 13.0 | 0.00 | 0.00 | 0.00 | 62 | 1008.0 |
| 20260506145346 | 72 | 231 | 4.0 | 11.0 | 0.00 | 0.00 | 0.00 | 63 | 1008.0 |
| 20260506144849 | 71 | 238 | 5.0 | 11.0 | 0.00 | 0.00 | 0.00 | 63 | 1007.9 |
| 20260506144356 | 71 | 236 | 5.0 | 12.0 | 0.00 | 0.00 | 0.00 | 64 | 1007.8 |
| 20260506143923 | 71 | 223 | 5.0 | 12.0 | 0.00 | 0.00 | 0.00 | 64 | 1007.9 |
| 20260506143345 | 71 | 227 | 6.0 | 11.0 | 0.00 | 0.00 | 0.00 | 64 | 1007.9 |
| 20260506142851 | 71 | 206 | 5.0 | 13.0 | 0.00 | 0.00 | 0.00 | 65 | 1007.9 |
| 20260506142355 | 71 | 269 | 6.0 | 13.0 | 0.00 | 0.00 | 0.00 | 65 | 1007.9 |
| 20260506141845 | 70 | 241 | 4.0 | 11.0 | 0.00 | 0.00 | 0.00 | 66 | 1007.8 |
| 20260506141352 | 70 | 300 | 3.0 | 11.0 | 0.00 | 0.00 | 0.00 | 67 | 1007.8 |
| 20260506140857 | 70 | 237 | 3.0 | 14.0 | 0.00 | 0.00 | 0.00 | 68 | 1007.8 |
| 20260506140343 | 69 | 232 | 8.0 | 14.0 | 0.00 | 0.00 | 0.00 | 68 | 1008.0 |
| 20260506135910 | 69 | 250 | 5.0 | 9.0 | 0.00 | 0.00 | 0.00 | 70 | 1007.9 |
| 20260506135356 | 68 | 268 | 4.0 | 10.0 | 0.00 | 0.00 | 0.00 | 71 | 1008.1 |
| 20260506134919 | 68 | 215 | 4.0 | 7.0 | 0.00 | 0.00 | 0.00 | 72 | 1008.1 |
| 20260506134402 | 67 | 224 | 2.0 | 13.0 | 0.00 | 0.00 | 0.00 | 72 | 1008.0 |
| 20260506133847 | 67 | 246 | 3.0 | 13.0 | 0.00 | 0.00 | 0.00 | 73 | 1008.3 |
| 20260506133351 | 67 | 240 | 3.0 | 11.0 | 0.00 | 0.00 | 0.00 | 73 | 1008.4 |
| 20260506132900 | 67 | 242 | 6.0 | 11.0 | 0.00 | 0.00 | 0.00 | 73 | 1008.6 |
| 20260506132405 | 66 | 238 | 1.0 | 5.0 | 0.00 | 0.00 | 0.00 | 74 | 1008.6 |
| 20260506131849 | 66 | 286 | 3.0 | 8.0 | 0.00 | 0.00 | 0.00 | 75 | 1008.7 |
| 20260506131356 | 66 | 231 | 3.0 | 9.0 | 0.00 | 0.00 | 0.00 | 75 | 1008.6 |
| 20260506130901 | 66 | 234 | 5.0 | 9.0 | 0.00 | 0.00 | 0.00 | 75 | 1008.6 |
| 20260506130401 | 65 | 232 | 4.0 | 7.0 | 0.00 | 0.00 | 0.00 | 76 | 1008.5 |
| 20260506125852 | 65 | 211 | 3.0 | 9.0 | 0.00 | 0.00 | 0.00 | 76 | 1008.5 |
| 20260506125400 | 65 | 229 | 4.0 | 11.0 | 0.00 | 0.00 | 0.00 | 77 | 1008.6 |
| 20260506124844 | 65 | 226 | 3.0 | 11.0 | 0.00 | 0.00 | 0.00 | 77 | 1008.7 |
| 20260506124352 | 65 | 227 | 4.0 | 10.0 | 0.00 | 0.00 | 0.00 | 77 | 1008.7 |
| 20260506123858 | 64 | 234 | 6.0 | 10.0 | 0.00 | 0.00 | 0.00 | 78 | 1008.7 |
| 20260506123346 | 64 | 256 | 4.0 | 10.0 | 0.00 | 0.00 | 0.00 | 78 | 1008.9 |
| 20260506122853 | 64 | 242 | 4.0 | 7.0 | 0.00 | 0.00 | 0.00 | 80 | 1008.8 |
| 20260506122358 | 63 | 234 | 3.0 | 10.0 | 0.00 | 0.00 | 0.00 | 79 | 1008.8 |
| 20260506121902 | 63 | 250 | 3.0 | 10.0 | 0.00 | 0.00 | 0.00 | 80 | 1008.7 |
| 20260506121344 | 63 | 257 | 4.0 | 7.0 | 0.00 | 0.00 | 0.00 | 80 | 1008.6 |
| 20260506120851 | 63 | 229 | 3.0 | 9.0 | 0.00 | 0.00 | 0.00 | 81 | 1008.8 |
| 20260506120351 | 62 | 241 | 5.0 | 12.0 | 0.00 | 0.00 | 0.00 | 81 | 1008.8 |
| 20260506115903 | 62 | 232 | 4.0 | 12.0 | 0.00 | 0.00 | 0.00 | 82 | 1009.0 |
| 20260506115349 | 62 | 244 | 4.0 | 9.0 | 0.00 | 0.00 | 0.00 | 82 | 1009.0 |
| 20260506114912 | 62 | 219 | 3.0 | 10.0 | 0.00 | 0.00 | 0.00 | 82 | 1009.1 |
| 20260506114355 | 62 | 232 | 6.0 | 10.0 | 0.00 | 0.00 | 0.00 | 82 | 1008.8 |
| 20260506113900 | 62 | 236 | 3.0 | 9.0 | 0.00 | 0.00 | 0.00 | 82 | 1009.2 |
| 20260506113403 | 62 | 221 | 5.0 | 9.0 | 0.00 | 0.00 | 0.00 | 82 | 1009.4 |
| 20260506112848 | 62 | 221 | 4.0 | 8.0 | 0.00 | 0.00 | 0.00 | 82 | 1009.3 |
| 20260506112412 | 62 | 264 | 2.0 | 7.0 | 0.00 | 0.00 | 0.00 | 82 | 1009.3 |
| 20260506111851 | 62 | 215 | 5.0 | 8.0 | 0.00 | 0.00 | 0.00 | 82 | 1009.1 |
| 20260506111356 | 62 | 217 | 3.0 | 8.0 | 0.00 | 0.00 | 0.00 | 82 | 1009.1 |
| 20260506110902 | 62 | 229 | 5.0 | 7.0 | 0.00 | 0.00 | 0.00 | 82 | 1009.1 |
| 20260506110356 | 61 | 239 | 5.0 | 7.0 | 0.00 | 0.00 | 0.00 | 82 | 1009.1 |
| 20260506105922 | 61 | 229 | 3.0 | 8.0 | 0.00 | 0.00 | 0.00 | 83 | 1009.0 |
| 20260506105347 | 61 | 235 | 4.0 | 8.0 | 0.00 | 0.00 | 0.00 | 83 | 1009.0 |
| 20260506104851 | 61 | 254 | 3.0 | 9.0 | 0.00 | 0.00 | 0.00 | 82 | 1009.0 |
| 20260506104343 | 61 | 240 | 4.0 | 9.0 | 0.00 | 0.00 | 0.00 | 82 | 1009.0 |
| 20260506103905 | 61 | 230 | 2.0 | 11.0 | 0.00 | 0.00 | 0.00 | 82 | 1009.1 |
| 20260506103348 | 61 | 241 | 3.0 | 11.0 | 0.00 | 0.00 | 0.00 | 82 | 1009.1 |
| 20260506102854 | 61 | 237 | 2.0 | 6.0 | 0.00 | 0.00 | 0.00 | 82 | 1009.2 |
| 20260506102423 | 61 | 229 | 1.0 | 7.0 | 0.00 | 0.00 | 0.00 | 82 | 1009.2 |
| 20260506101847 | 61 | 232 | 1.0 | 7.0 | 0.00 | 0.00 | 0.00 | 82 | 1009.1 |
| 20260506101352 | 61 | 217 | 4.0 | 7.0 | 0.00 | 0.00 | 0.00 | 82 | 1009.0 |
| 20260506100858 | 61 | 234 | 3.0 | 9.0 | 0.00 | 0.00 | 0.00 | 82 | 1008.9 |
| 20260506100356 | 61 | 244 | 4.0 | 9.0 | 0.00 | 0.00 | 0.00 | 82 | 1009.0 |
| 20260506095850 | 61 | 233 | 4.0 | 9.0 | 0.00 | 0.00 | 0.00 | 82 | 1009.0 |
| 20260506095357 | 61 | 232 | 4.0 | 7.0 | 0.00 | 0.00 | 0.00 | 82 | 1008.8 |
| 20260506094845 | 61 | 233 | 2.0 | 8.0 | 0.00 | 0.00 | 0.00 | 82 | 1008.7 |
| 20260506094347 | 61 | 217 | 3.0 | 8.0 | 0.00 | 0.00 | 0.00 | 82 | 1008.7 |
| 20260506093852 | 61 | 236 | 2.0 | 8.0 | 0.00 | 0.00 | 0.00 | 82 | 1008.7 |
| 20260506093356 | 61 | 229 | 2.0 | 8.0 | 0.00 | 0.00 | 0.00 | 82 | 1008.8 |
| 20260506092843 | 61 | 232 | 4.0 | 8.0 | 0.00 | 0.00 | 0.00 | 81 | 1008.9 |
| 20260506092350 | 61 | 221 | 4.0 | 7.0 | 0.00 | 0.00 | 0.00 | 81 | 1008.9 |
| 20260506091854 | 61 | 246 | 2.0 | 5.0 | 0.00 | 0.00 | 0.00 | 81 | 1008.8 |
| 20260506091359 | 61 | 234 | 2.0 | 7.0 | 0.00 | 0.00 | 0.00 | 80 | 1008.8 |
| 20260506090843 | 61 | 223 | 4.0 | 7.0 | 0.00 | 0.00 | 0.00 | 80 | 1008.8 |